#timestamp,LO_Frequency,Hit,StdDev 
1596337215.6,286047016.8,N
1596337235.4,286047015.2,N
1596337255.3,286047014.9,N
1596337275.1,286047014.2,N
1596337295.9,286047015.0,Y
1596337315.7,286047006.4,P
1596337335.5,286047003.1,N
1596337355.4,286047003.1,N
1596337375.2,286047012.0,N
1596337395.1,286047008.9,N
1596337396.0,286047008.9,N
1596337415.8,286046998.9,N
1596337435.6,286046992.1,N
1596337455.5,286046992.8,N
1596337475.3,286046987.5,N
1596337495.1,286046985.2,N
1596337515.9,286046985.7,N
1596337535.7,286046986.9,N
1596337555.6,286046988.0,N
1596337575.4,286046986.5,N
1596337595.2,286046980.9,N
1596337615.1,286046983.4,N
1596337616.0,286046983.4,N
1596337635.8,286046988.2,N
1596337655.7,286047023.0,N
1596337675.5,286047032.0,N
1596337695.3,286047019.8,N
1596337715.2,286046997.5,N
1596337735.0,286046986.9,N
1596337735.9,286046986.9,N
1596337755.8,286046986.1,N
1596337775.6,286046970.3,N
1596337795.4,286046960.3,N
1596337815.3,286046959.1,N
1596337835.1,286046949.3,Y
1596337855.8,286046946.1,P
1596337875.7,286046941.7,N
1596337895.5,286046931.5,N
1596337915.4,286046931.4,N
1596337935.2,286046934.4,N
1596337955.0,286046933.7,Y
1596337955.9,286046933.7,P
1596337975.8,286046979.3,P
1596337995.6,286046974.2,N
1596338015.4,286046974.3,N
1596338035.3,286046971.5,N
1596338055.1,286046963.5,N
1596338075.9,286046957.4,N
1596338095.7,286046952.6,Y
1596338115.5,286046989.2,P
1596338135.4,286046993.1,N
1596338155.2,286046985.5,N
1596338175.1,286046989.8,N
1596338176.0,286046989.8,N
1596338195.8,286046990.3,N
1596338215.6,286046997.0,N
1596338235.5,286046999.7,N
1596338255.3,286046996.9,N
1596338275.1,286046999.3,N
1596338295.9,286047010.0,N
1596338315.7,286047020.6,N
1596338335.6,286047029.9,N
1596338355.4,286047031.8,N
1596338375.2,286047042.9,N
1596338395.1,286047053.8,N
1596338396.0,286047053.8,N
1596338415.8,286047058.4,N
1596338435.6,286047060.7,N
1596338455.5,286047063.4,N
1596338475.3,286047058.4,N
1596338495.2,286047060.0,N
1596338515.9,286047061.4,N
1596338535.7,286047060.8,N
1596338555.6,286047056.2,N
1596338575.4,286047053.5,N
1596338595.2,286047051.9,N
1596338615.1,286047051.0,N
1596338616.0,286047051.0,N
1596338635.8,286047054.6,N
1596338655.7,286047058.4,N
1596338675.5,286047060.4,N
1596338695.3,286047064.8,N
1596338715.2,286047068.1,N
1596338735.0,286047064.3,N
1596338735.9,286047064.3,N
1596338755.7,286047059.0,N
1596338775.6,286047055.9,N
1596338795.4,286047052.3,N
1596338815.3,286047049.2,Y
1596338835.1,286046994.0,P
1596338855.8,286046992.3,N
1596338875.7,286046988.0,N
1596338895.5,286046983.9,N
1596338915.4,286046984.1,N
1596338935.2,286046976.1,N
1596338955.0,286046978.4,N
1596338955.9,286046978.4,N
1596338975.8,286046973.1,N
1596338995.6,286046970.4,N
1596339015.4,286046964.6,N
1596339035.3,286046961.5,N
1596339055.1,286046957.1,N
1596339075.9,286046955.0,N
1596339095.7,286046956.7,N
1596339115.5,286046959.6,N
1596339135.4,286046959.8,N
1596339155.2,286046959.4,N
1596339175.0,286046957.8,N
1596339175.9,286046957.8,N
1596339195.8,286046957.1,N
1596339215.6,286046958.0,N
1596339235.5,286046956.2,N
1596339255.3,286046962.4,N
1596339275.1,286046959.5,N
1596339295.9,286046954.5,N
1596339315.7,286046950.1,N
1596339335.5,286046957.5,N
1596339355.4,286046963.4,N
1596339375.2,286046975.6,N
1596339395.1,286046982.0,N
1596339396.0,286046982.0,N
1596339415.8,286047000.7,N
1596339435.6,286047015.1,N
1596339455.5,286047018.4,N
1596339475.3,286047024.0,N
1596339495.1,286047027.0,N
1596339515.9,286047025.8,N
1596339535.7,286047021.4,N
1596339555.6,286047019.7,N
1596339575.4,286047021.6,N
1596339595.2,286047024.1,N
1596339615.1,286047032.3,N
1596339616.0,286047032.3,N
1596339635.8,286047042.4,N
1596339655.7,286047043.1,N
1596339675.5,286047040.0,N
1596339695.3,286047040.4,N
1596339715.2,286047039.5,N
1596339735.0,286047035.7,N
1596339735.9,286047035.7,N
1596339755.7,286047031.8,N
1596339775.6,286047030.3,N
1596339795.4,286047027.8,N
1596339815.3,286047026.4,N
1596339835.1,286047024.3,N
1596339836.0,286047024.3,N
1596339855.8,286047021.6,N
1596339875.7,286047025.2,N
1596339895.5,286047024.7,N
1596339915.3,286047015.6,N
1596339935.2,286047005.5,N
1596339955.0,286047001.1,N
1596339955.9,286047001.1,N
1596339975.8,286046997.3,N
1596339995.6,286046996.6,N
1596340015.4,286046991.3,N
1596340035.3,286046980.4,N
1596340055.1,286046973.4,N
1596340075.9,286046971.8,N
1596340095.7,286046974.0,N
1596340115.5,286046963.1,N
1596340135.4,286046960.3,N
1596340155.2,286046958.1,N
1596340175.0,286046956.5,N
1596340175.9,286046956.5,N
1596340195.8,286046959.5,N
1596340215.6,286046958.4,N
1596340235.5,286046955.6,N
1596340255.3,286046950.4,N
1596340275.1,286046951.3,N
1596340295.9,286046949.2,N
1596340315.7,286046947.3,N
1596340335.5,286046945.1,N
1596340355.4,286046940.7,N
1596340375.2,286046943.5,N
1596340395.1,286046937.6,N
1596340396.0,286046937.6,N
1596340415.8,286046932.9,N
1596340435.6,286046933.1,N
1596340455.5,286046931.5,N
1596340475.3,286046926.0,Y
1596340495.2,286046954.2,P
1596340515.9,286046953.0,P
1596340535.7,286046954.4,P
1596340555.6,286046952.5,Y
1596340575.4,286046990.5,P
1596340595.3,286046986.1,N
1596340615.1,286046986.8,N
1596340616.0,286046986.8,N
1596340635.8,286046986.6,N
1596340655.7,286046985.3,N
1596340675.5,286046985.6,N
1596340695.4,286046984.4,N
1596340715.2,286046985.8,N
1596340735.0,286046991.3,N
1596340735.9,286046991.3,N
1596340755.8,286046993.7,N
1596340775.6,286046993.8,N
1596340795.4,286046998.0,N
